Location: Erp
(42.9417°N, 1.2009°E)
Time: 05:04:44
(UTC+00:00)

USA 238 - Visible Passes

Search period start: 21 April 2026 00:00
Search period end: 01 May 2026 00:00
Orbit: 883 x 1328 km, 63.4° (Epoch: 10 January)

Date Brightness Start Highest point End Pass type
(mag) Time Alt. Az. Time Alt. Az. Time Alt. Az.
21 Apr 4.1 19:26:21 10° NW 19:33:54 87° NE 19:42:04 10° SE visible
21 Apr 5.8 21:18:36 10° WNW 21:24:11 22° WSW 21:30:01 10° SSW visible
22 Apr 5.3 20:32:48 10° NW 20:39:31 34° WSW 20:46:38 10° S visible
23 Apr 4.7 19:47:25 10° NW 19:54:43 52° WSW 20:02:32 10° S visible
24 Apr 4.3 19:02:16 10° NW 19:09:48 77° WSW 19:17:56 10° SSE visible
24 Apr 6.2 20:55:20 10° WNW 20:59:51 17° WSW 21:04:30 10° SW visible
25 Apr 5.8 20:09:05 10° WNW 20:15:15 27° WSW 20:21:43 10° SSW visible
26 Apr 5.2 19:23:30 10° NW 19:30:31 41° WSW 19:37:59 10° S visible
27 Apr 6.5 20:32:51 10° W 20:35:27 12° WSW 20:38:07 10° WSW visible
28 Apr 6.2 19:45:35 10° WNW 19:50:56 21° WSW 19:56:30 10° SSW visible
